Погода в Неполоковцах

Украина / Черновицкая область     48°23′58″N   25°39′07″E
темп.,
°C
ветер,
м/с
пор.,
м/с
влажн.,
%
обл.,
%
осадки,
мм/ч
давл.,
гПа
погр.,
м
7 мая, пт
пт700:00+7зюз11685 0.0 101410
03:00+6ююв337494 0.0 101442
06:00+7юв3777100 0.0 1012147
09:00+10ююв5975100 0.0 1010323
12:00+16ююз6859100 0.0 10081372
15:00+13св1284100 1.3 1008135
18:00+13ююз1283100 0.3 100662
21:00+10з2284100 0.4 100734
8 мая, сб
сб800:00+10з51087100 0.2 1009321
03:00+7сз81388100 1.1 10121100
06:00+5зсз71482100 0.1 1015623
09:00+7зсз914675 0.1 10171173
12:00+10сз10125077 0.0 10191961
15:00+11ссз911516 0.0 10201522
18:00+11сз710515 0.0 10201629
21:00+6зсз37703 0.0 1022151
9 мая, вс
вс900:00+4з22810 0.0 102422
03:00+3зюз22850 0.0 102519
06:00+2юз11862 0.0 102611
09:00+9ю126429 0.0 1027324
12:00+14ююв324739 0.0 10261612
15:00+16юв22395 0.0 10251748
18:00+16вюв444731 0.0 10241248
21:00+10юв410655 0.0 1025190
10 мая, пн
пн1000:00+8юв48685 0.0 1026169
03:00+6вюв396943 0.0 1025169
06:00+5вюв36735 0.0 1025107
09:00+11юв610635 0.0 1025442
12:00+17юв811545 0.0 1025999
15:00+19юв810475 0.0 10231299
18:00+18юв710550 0.0 1022987
21:00+13юв614620 0.0 1023433
11 мая, вт
вт1100:00+11вюв513690 0.0 1024303
03:00+9вюв411730 0.0 1024237
06:00+7вюв411800 0.0 1024233
09:00+12юв713630 0.0 1023583
12:00+17юв810510 0.0 10221046
15:00+19юв89460 0.0 10201221
18:00+18юв79530 0.0 10191138
21:00+13вюв412640 0.0 1019261